DELTA 1 R/B, 3036

Orbit data source: Space-Track

DELTA 1 R/B, 3036 is space debris in SSO originally from a launch on Fri, 10 Nov 1967 UTC launched from the Air Force Western Test Range (AFWTR). Debris objects in space refer to the collection of defunct objects orbiting the Earth. Examples of debris include non-operational satellites, rocket bodies, and fragments generated from explosions, collisions, or faulty payload assembly.

Loading next visibility...
Identifier
3036, 1967-114B
Orbit
SSO
Last TLE update
1 day ago
Origin
Manufacturer
UTC
Mission
Spacecraft
Bus & Motor
FW4, Unknown motor
Mass
~40 kg wet, ~40 kg dry
Launch date (UTC)
1967-11-10 (57 years ago)
Launch vehicle
Unknown
Launch site
Air Force Western Test Range (AFWTR)
Object type
Payload
Rocket body
Debris
Shape & HBR
Cyl, 1.5 m
Radar Cross Section
0.687 m², Medium (>0.1 m² and < 1m²)

Expand to show TLE details & history

TLE from 1 day ago
0 DELTA 1 R/B
1 03036U 67114B   25118.75622324 -.00000025  00000-0  13470-3 0  9995
2 03036 102.0110 209.5640 0048034 209.2335 303.0704 12.54131034630390
Epoch: 2025-04-28T18:08Z
Definitive object data (Epoch: 2025-04-28T18:08:57.687Z)
Latitude
27.52939°
Longitude
-93.30677°
Altitude
1,429.95 km
Speed
7.158 km/s
True Right ascension
02h 23m 35s
True Declination
27° 24' 03"
Sunlit
Object was in daylight at TLE epoch
Visualization TLE readout
Latitude
-77.78551°
Longitude
159.63857°
Altitude
1,459.321 km
Speed
7.14 km/s
Apparent Right ascension
20h 32m 01s
Apparent Declination
-61° 11' 39"
Sunlit
Object is in daylight
Visualization observer readout
Local Sidereal Time
08:57:36
Azimuth
171.631° S
Elevation
-68.362°
Doppler factor
1
Orbital elements
Apogee altitude
1,482.397 km
Perigee altitude
1,407.243 km
Semi-major axis
7,822.957 km
Eccentricity
0.0048034
Inclination
102.011°
RAAN
209.564°
Arg. of periapsis
209.2335°
True anomaly
302.60763°
Mean anomaly
303.0704°
Eccentric anomaly
302.83917°
Mean motion
3.1368 °/min
BSTAR
0.0001347
Orbital period
114.77 mins
Loading maneuver chart data...
Loading SW <> Apogee altitude chart data...
Loading historical data...
Loading historical data...
Loading historical data...
Loading historical data...
Loading historical data...
Loading historical data...
Loading historical data...
Other satellites on launch #114 in the year 1967 (1967-11-10 UTC)

DELTA 1 R/B Visibility forecast

Observer location: undefined°, undefined°

Span
Click to sort rows by Start time (UTC) header in descending order
Start Az.
Max El. time (UTC)
Max El. Az.
Max El.
End time (UTC)
End Az.
12 mins2025-04-30 03:58:04.462Z100.349° ESE2025-04-30 04:04:04.462Z54.11° ENE21.769°2025-04-30 04:10:04.462Z6.58° NNE
15 mins2025-04-30 05:49:04.462Z163.617° S2025-04-30 05:56:04.462Z280.689° WNW44.817°2025-04-30 06:04:04.462Z341.145° N
8 mins2025-04-30 07:46:04.462Z242.331° WSW2025-04-30 07:50:04.462Z273.378° WNW15.402°2025-04-30 07:54:04.462Z302.805° NW
12 mins2025-04-30 17:52:04.462Z43.991° NE2025-04-30 17:58:04.462Z103.057° ESE27.991°2025-04-30 18:04:04.462Z155.315° SSE
14 mins2025-04-30 19:44:04.462Z6.367° NNE2025-04-30 19:51:04.462Z282.727° WNW39.172°2025-04-30 19:58:04.462Z221.556° SW
4 mins2025-04-30 21:40:04.462Z326.378° NNW2025-04-30 21:41:04.462Z318.896° NNW11.958°2025-04-30 21:44:04.462Z296.795° NW
|